Location: Zagreb
(45.8000°N, 16.0000°E)
Time: 02:52:53
(UTC+02:00)

Transit 2A Rocket - Pass Details

Date: 29 January 2022
Orbit: 592 x 909 km, 66.7° (Epoch: 26 May)

Event Time Altitude Azimuth Distance (km) Brightness Sun altitude
Rises 00:07:57 0° 329° (NNW) 3,498 - -62.2°
Reaches altitude 10° 00:11:47 10° 352° (N) 2,508 - -62.2°
Maximum altitude 00:14:55 15° 25° (NNE) 2,145 - -62.2°
Drops below altitude 10° 00:17:57 10° 58° (ENE) 2,401 - -62.1°
Sets 00:21:28 0° 83° (E) 3,256 - -62.1°
